Home > Weather > Mendrisio > Past weeks

Flag for Switzerland Weather for the Past 2 Weeks in Mendrisio, Ticino, Switzerland

Now
43 °F

Quite cool.


Feels Like: 41 °F
Forecast: 24 / 36 °F
Wind: 3 mph from Southwest

Location: Stabio

Current Time: Feb 12, 2016 at 3:21:55 PM

Latest Report: Feb 12, 2016 at 2:00 PM


Visibility: N/A

Pressure: 29.65 "Hg

Humidity: 62%

Dew point: 30 °F

Location of MendrisioLocation

Historic Weather in Mendrisio — Graph

°F

Mendrisio Temperature Yesterday

Maximum temperature yesterday: 50 °F (at 3:00 PM)
Minimum temperature yesterday: 26 °F (at 7:00 AM)
Average temperature yesterday: 38 °F

High & Low Weather Summary for the Past Weeks

 TemperatureHumidityPressure
High57 °F (Jan 29, 3:00 PM)100% (Jan 29, 9:00 AM)30.52 "Hg (Jan 29, 9:00 AM)
Low26 °F (Feb 6, 8:00 AM)17% (Feb 4, 1:00 PM)29.35 "Hg (Feb 10, 4:00 AM)
Average42 °F75%30.09 "Hg
* Reported Jan 28 2:00 PM — Feb 12 2:00 PM, Mendrisio, Weather by CustomWeather, © 2016

Note: Actual official high and low records may vary slightly from our data, if they occured in-between our weather recording intervals... More about our weather records

Advertising

Mendrisio Weather History for the Previous 24 Hours

 ConditionsComfort  
Time TempWeatherWind HumidityBarometerVisibility
2:00 PM
Fri, Feb 12
43 °FQuite cool.3 mph62%29.65 "HgN/A
1:00 PM43 °FQuite cool.2 mph64%29.68 "HgN/A
12:00 PM42 °FQuite cool.1 mph60%29.72 "HgN/A
11:00 AM42 °FQuite cool.2 mph59%29.74 "HgN/A
10:00 AM37 °FChilly.No wind72%29.75 "HgN/A
9:00 AM32 °FChilly.No wind87%29.78 "HgN/A
8:00 AM30 °FChilly.No wind84%29.79 "HgN/A
7:00 AM30 °FChilly.2 mph84%29.78 "HgN/A
6:00 AM32 °FChilly.1 mph83%29.77 "HgN/A
5:00 AM32 °FChilly.1 mph81%29.78 "HgN/A
4:00 AM33 °FChilly.2 mph81%29.78 "HgN/A
9:00 PM
Thu, Feb 11
34 °FChilly.1 mph66%29.82 "HgN/A
8:00 PM37 °FChilly.1 mph56%29.80 "HgN/A
7:00 PM37 °FChilly.1 mph66%29.80 "HgN/A
6:00 PM38 °FChilly.2 mph51%29.79 "HgN/A
5:00 PM46 °FCool.3 mph29%29.75 "HgN/A
4:00 PM49 °FCool.3 mph25%29.74 "HgN/A
3:00 PM50 °FCool.5 mph23%29.74 "HgN/A
Weather by CustomWeather, © 2016

See weather overviewHow to use our weather pages